C/2012 K6 ( McNaught )

Japanese version
Home page
Updated on March 24, 2014

---------------------------------------------------------------------

* Profile

Discovery Date May 27, 2012
Magnitude 18.4 mag
Discoverer Robert H. McNaught (Siding Spring)

* Pictures

* Orbital Elements

Epoch 2013 May 28.0 TT = JDT 2456440.5
T 2013 May 21.49586 TT                                  MPC
q   3.3530832            (2000.0)            P               Q
z  +0.0001562      Peri.  338.83312     -0.71568344     -0.62148242
 +/-0.0000009      Node   206.89886     -0.49561698     +0.13042502
e   0.9994761      Incl.  135.21939     -0.49209859     +0.77249525
From 209 observations 2012 May 27-2013 Dec. 3, mean residual 0".4.

* Finding Charts

* Magnitudes Graph

        m1 = 4.2 + 5 logΔ + 15.0 log r(t - 100)

---------------------------------------------------------------------

The orbital elements are published on M.P.E.C. 2013-X39.
The charts are made with StellaNavigator Ver.8 (AstroArts).
The magnitudes graphs are made with Comet for Windows.

---------------------------------------------------------------------

Copyright(C) Seiichi Yoshida (comet@aerith.net). All rights reserved.